Location: *
(24.1434°N, 56.8729°E)
Time: 06:00:00
(UTC+00:00)

Cosmos 2184 Rocket - Visible Passes

Search period start: 11 August 2020 00:00
Search period end: 21 August 2020 00:00
Orbit: 960 x 1001 km, 82.9° (Epoch: 10 August)

Date Brightness Start Highest point End Pass type
(mag) Time Alt. Az. Time Alt. Az. Time Alt. Az.
11 Aug 5.6 01:00:45 10° NNE 01:06:33 40° E 01:12:17 10° SSE visible
13 Aug 6.8 00:10:50 10° NE 00:14:44 17° ENE 00:18:35 10° ESE visible
13 Aug 7.4 15:18:23 10° W 15:20:58 13° WNW 15:23:35 10° NW visible
14 Aug 5.6 00:36:12 10° NNE 00:41:52 36° E 00:47:28 10° SSE visible
15 Aug 4.2 01:02:36 10° N 01:08:50 77° E 01:15:00 10° S visible
15 Aug 6.8 23:46:31 10° NE 23:50:01 15° ENE 23:53:29 10° ESE visible
17 Aug 5.7 00:11:39 10° NNE 00:17:11 33° E 00:22:39 10° SE visible
18 Aug 4.3 00:37:59 10° N 00:44:11 71° E 00:50:18 10° SSE visible
18 Aug 6.8 23:22:17 10° NE 23:25:19 14° ENE 23:28:19 10° ESE visible
19 Aug 4.1 01:04:58 10° NNW 01:11:01 55° W 01:16:59 10° SSW visible
19 Aug 5.7 23:47:08 10° NNE 23:52:30 30° E 23:57:48 10° SE visible
